Oakland, MD

5:23 PM EDT on September 16, 2019 (GMT -0400)
Oakland

Weather History for K2G4 - August, 2019

Change the Weather History Date:

Sunday, August 25, 2019

  Actual Average (KMGW) Record (KMGW)
Temperature  
Mean Temperature 53 °F -  
Max Temperature 60 °F 81 °F 103 °F (1893)
Min Temperature 46 °F 60 °F 43 °F (1927)
Degree Days  
Heating Degree Days 12    
Growing Degree Days 3 (Base 50)    
Moisture  
Dew Point 46 °F    
Average Humidity 78    
Maximum Humidity 93    
Minimum Humidity 59    
Precipitation  
Precipitation 0.00 in - - ()
Sea Level Pressure  
Sea Level Pressure 30.25 in    
Wind  
Wind Speed 8 mph ()    
Max Wind Speed 15 mph    
Max Gust Speed 22 mph    
Visibility 10.0 miles    
Events      
Averages and records for this station are not official NWS values.
T = Trace of Precipitation, MM = Missing Value Source: Averaged Metar Reports

Daily Weather History Graph

Daily Weather History Graph

Search for Another Location

Airport or City:

Astronomy

Aug. 25, 2019 Rise Set
Actual Time 6:38 AM EDT 7:59 PM EDT
Civil Twilight 6:10 AM EDT 8:27 PM EDT
Nautical Twilight 5:37 AM EDT 9:00 PM EDT
Astronomical Twilight 5:01 AM EDT 9:36 PM EDT
Moon 1:13 AM EDT (8/25) 4:17 PM EDT (8/25)
Length of Visible Light 14h 16m
Length of Day
13h 20m
Waning Crescent, 29% of the Moon is Illuminated
Aug 25
Waning Crescent
Aug 30
New
Sep 5
First Quarter
Sep 14
Full
Sep 21
Last Quarter

Hourly Weather History & Observations

Time (EDT) Temp. Windchill Dew Point Humidity Pressure Visibility Wind Dir Wind Speed Gust Speed Precip Events Conditions
12:20 AM 51.8 °F - 46.4 °F 82% 30.28 in 10.0 mi ESE 8.1 mph - N/A   Clear
1:00 AM 51.8 °F - 46.4 °F 82% 30.28 in 10.0 mi East 6.9 mph - N/A   Clear
1:20 AM 51.8 °F - 44.6 °F 76% 30.27 in 10.0 mi ESE 5.8 mph - N/A   Clear
1:40 AM 50.0 °F - 46.4 °F 87% 30.27 in 10.0 mi ESE 8.1 mph - N/A   Clear
2:00 AM 50.0 °F - 44.6 °F 82% 30.27 in 10.0 mi ESE 8.1 mph - N/A   Clear
2:20 AM 50.0 °F - 44.6 °F 82% 30.26 in 10.0 mi ESE 8.1 mph - N/A   Clear
2:40 AM 50.0 °F - 44.6 °F 82% 30.25 in 10.0 mi ESE 6.9 mph - N/A   Clear
3:00 AM 50.0 °F - 44.6 °F 82% 30.25 in 10.0 mi ESE 5.8 mph - N/A   Clear
3:20 AM 50.0 °F - 44.6 °F 82% 30.25 in 10.0 mi ESE 6.9 mph - N/A   Clear
3:40 AM 50.0 °F - 46.4 °F 87% 30.25 in 10.0 mi ESE 6.9 mph - N/A   Clear
4:00 AM 50.0 °F - 46.4 °F 87% 30.25 in 10.0 mi ESE 6.9 mph - N/A   Clear
4:20 AM 50.0 °F - 46.4 °F 87% 30.25 in 10.0 mi ESE 8.1 mph - N/A   Clear
4:40 AM 50.0 °F - 44.6 °F 82% 30.24 in 10.0 mi East 8.1 mph - N/A   Clear
5:20 AM 48.2 °F - 44.6 °F 87% 30.24 in 10.0 mi ESE 6.9 mph - N/A   Clear
5:40 AM 48.2 °F - 44.6 °F 87% 30.25 in 10.0 mi ESE 6.9 mph - N/A   Clear
6:00 AM 48.2 °F - 44.6 °F 87% 30.25 in 10.0 mi ESE 5.8 mph - N/A   Clear
6:20 AM 48.2 °F - 44.6 °F 87% 30.25 in 10.0 mi ESE 8.1 mph - N/A   Clear
6:40 AM 48.2 °F - 44.6 °F 87% 30.26 in 10.0 mi ESE 8.1 mph - N/A   Clear
7:00 AM 46.4 °F 42.9 °F 44.6 °F 93% 30.26 in 10.0 mi ESE 6.9 mph - N/A   Clear
7:20 AM 48.2 °F - 44.6 °F 87% 30.27 in 10.0 mi ESE 8.1 mph - N/A   Clear
7:40 AM 50.0 °F - 44.6 °F 82% 30.27 in 10.0 mi ESE 8.1 mph - N/A   Clear
8:00 AM 50.0 °F - 44.6 °F 82% 30.27 in 10.0 mi ESE 6.9 mph - N/A   Clear
8:20 AM 51.8 °F - 44.6 °F 76% 30.26 in 10.0 mi ESE 6.9 mph - N/A   Clear
8:40 AM 51.8 °F - 46.4 °F 82% 30.27 in 10.0 mi ESE 9.2 mph - N/A   Clear
9:00 AM 53.6 °F - 46.4 °F 77% 30.26 in 10.0 mi ESE 6.9 mph - N/A   Clear
9:40 AM 57.2 °F - 46.4 °F 67% 30.26 in 10.0 mi East 5.8 mph - N/A   Clear
10:00 AM 57.2 °F - 46.4 °F 67% 30.26 in 10.0 mi ESE 6.9 mph - N/A   Clear
10:20 AM 59.0 °F - 48.2 °F 67% 30.27 in 10.0 mi East 10.4 mph - N/A   Clear
10:40 AM 59.0 °F - 48.2 °F 67% 30.28 in 10.0 mi ESE 9.2 mph - N/A   Clear
11:00 AM 59.0 °F - 48.2 °F 67% 30.28 in 10.0 mi ESE 11.5 mph 17.3 mph N/A   Scattered Clouds
11:20 AM 60.8 °F - 50.0 °F 68% 30.28 in - ESE 11.5 mph 21.9 mph N/A   Scattered Clouds
11:40 AM 59.0 °F - 51.8 °F 77% 30.28 in 10.0 mi East 12.7 mph 21.9 mph N/A   Mostly Cloudy
12:00 PM 59.0 °F - 50.0 °F 72% 30.27 in - ESE 13.8 mph 18.4 mph N/A   Scattered Clouds
12:20 PM 60.8 °F - 50.0 °F 68% 30.27 in 10.0 mi SE 11.5 mph 19.6 mph N/A   Scattered Clouds
12:40 PM 60.8 °F - 46.4 °F 59% 30.27 in - SE 15.0 mph 21.9 mph N/A   Scattered Clouds
1:00 PM - - - N/A% 30.27 in 10.0 mi ESE 8.1 mph 17.3 mph N/A   Scattered Clouds
1:40 PM - - - N/A% 30.27 in 10.0 mi East 12.7 mph 18.4 mph N/A   Scattered Clouds
2:00 PM - - - N/A% 30.27 in 10.0 mi ESE 12.7 mph - N/A   Scattered Clouds
2:20 PM - - - N/A% 30.25 in - ESE 11.5 mph 20.7 mph N/A   Unknown
3:00 PM - - - N/A% 30.25 in - SSE 12.7 mph 16.1 mph N/A   Unknown
3:20 PM - - - N/A% 30.25 in - East 6.9 mph 18.4 mph N/A   Overcast
3:40 PM - - - N/A% 30.25 in 10.0 mi SE 10.4 mph 17.3 mph N/A   Scattered Clouds
4:20 PM - - - N/A% 30.24 in - SE 6.9 mph - N/A   Unknown
4:40 PM - - - N/A% 30.25 in - ESE 8.1 mph 16.1 mph N/A   Unknown
5:00 PM - - - N/A% 30.25 in - ESE 12.7 mph 17.3 mph N/A   Unknown
5:20 PM - - - N/A% 30.24 in - ESE 8.1 mph - N/A   Unknown
5:40 PM - - - N/A% 30.24 in 10.0 mi ESE 9.2 mph - N/A   Mostly Cloudy
6:00 PM - - - N/A% 30.23 in - ESE 8.1 mph - N/A   Unknown
6:20 PM - - - N/A% 30.23 in 10.0 mi ESE 10.4 mph 16.1 mph N/A   Scattered Clouds
6:40 PM - - - N/A% 30.23 in 10.0 mi ESE 6.9 mph - N/A   Scattered Clouds
7:00 PM - - - N/A% 30.22 in - ESE 8.1 mph - N/A   Unknown
7:20 PM - - - N/A% 30.21 in 10.0 mi East 5.8 mph - N/A   Clear
7:40 PM 59.0 °F - 46.4 °F 63% 30.21 in 10.0 mi ESE 6.9 mph - N/A   Clear
8:00 PM 55.4 °F - 46.4 °F 72% 30.22 in 10.0 mi ESE 6.9 mph - N/A   Clear
8:20 PM 55.4 °F - 46.4 °F 72% 30.21 in 10.0 mi ESE 6.9 mph - N/A   Clear
8:40 PM 55.4 °F - 46.4 °F 72% 30.22 in 10.0 mi ESE 5.8 mph - N/A   Clear
9:00 PM 53.6 °F - 46.4 °F 77% 30.22 in 10.0 mi ESE 6.9 mph - N/A   Clear
9:20 PM 53.6 °F - 46.4 °F 77% 30.22 in 10.0 mi ESE 5.8 mph - N/A   Clear
9:40 PM 53.6 °F - 46.4 °F 77% 30.22 in 10.0 mi ESE 6.9 mph - N/A   Clear
10:00 PM 53.6 °F - 46.4 °F 77% 30.22 in 10.0 mi ESE 8.1 mph - N/A   Clear
10:20 PM 53.6 °F - 46.4 °F 77% 30.22 in 10.0 mi ESE 9.2 mph - N/A   Clear
10:40 PM 53.6 °F - 48.2 °F 82% 30.22 in 10.0 mi ESE 9.2 mph - N/A   Clear
11:00 PM 53.6 °F - 48.2 °F 82% 30.22 in 10.0 mi ESE 10.4 mph 17.3 mph N/A   Clear
11:20 PM 53.6 °F - 48.2 °F 82% 30.22 in 10.0 mi SE 10.4 mph - N/A   Clear
11:40 PM 53.6 °F - 48.2 °F 82% 30.21 in 10.0 mi ESE 10.4 mph 17.3 mph N/A   Clear